Pompano Beach, FL

10:32 PM EDT on March 24, 2017 (GMT -0400)
Pompano Beach

Weather History for KPMP - September, 2012

Change the Weather History Date:

Saturday, September 8, 2012

  Actual Average Record
Temperature  
Mean Temperature 82 °F -  
Max Temperature 89 °F 91 °F 95 °F (1949)
Min Temperature 75 °F 74 °F 0 °F (2013)
Cooling Degree Days 16    
Growing Degree Days 32 (Base 50)    
Moisture  
Dew Point 73 °F    
Average Humidity 76    
Maximum Humidity 91    
Minimum Humidity 59    
Precipitation  
Precipitation 0.19 in - - ()
Sea Level Pressure  
Sea Level Pressure 29.95 in    
Wind  
Wind Speed 5 mph (South)    
Max Wind Speed 16 mph    
Max Gust Speed 21 mph    
Visibility 10 miles    
Events Rain , Thunderstorm    
Averages and records for this station are not official NWS values.
T = Trace of Precipitation, MM = Missing Value Source: NWS Daily Summary

Daily Weather History Graph

Daily Weather History Graph

Search for Another Location

Airport or City:

Trip Planner

Search our weather history database for the weather conditions in past years. The results will help you decide how hot, cold, wet, or windy it might be!

Date:

Astronomy

Sep. 08, 2012 Rise Set
Actual Time 7:03 AM EDT 7:31 PM EDT
Civil Twilight 6:40 AM EDT 7:55 PM EDT
Nautical Twilight 6:12 AM EDT 8:22 PM EDT
Astronomical Twilight 5:45 AM EDT 8:49 PM EDT
Moon 12:08 AM EDT (9/8) 2:02 PM EDT (9/8)
Length of Visible Light 13h 14m
Length of Day
12h 28m
Waning Gibbous, 49% of the Moon is Illuminated
Sep 8
Waning Gibbous
Sep 15
New
Sep 22
First Quarter
Sep 29
Full
Oct 8
Last Quarter

Hourly Weather History & Observations

Time (EDT) Temp. Heat Index Dew Point Humidity Pressure Visibility Wind Dir Wind Speed Gust Speed Precip Events Conditions
12:53 AM 78.1 °F - 72.0 °F 81% 29.95 in 10.0 mi South 3.5 mph - N/A   Clear
1:53 AM 78.1 °F - 73.0 °F 84% 29.93 in 10.0 mi South 3.5 mph - N/A   Clear
2:53 AM 78.1 °F - 73.0 °F 84% 29.93 in 10.0 mi SW 3.5 mph - N/A   Clear
3:53 AM 78.1 °F - 73.0 °F 84% 29.92 in 10.0 mi Calm Calm - N/A   Clear
4:53 AM 77.0 °F - 73.0 °F 88% 29.93 in 10.0 mi Calm Calm - N/A   Clear
5:53 AM 75.9 °F - 73.0 °F 91% 29.95 in 10.0 mi Calm Calm - N/A   Clear
6:53 AM 75.9 °F - 73.0 °F 91% 29.96 in 10.0 mi Calm Calm - N/A   Clear
7:53 AM 77.0 °F - 73.9 °F 90% 29.98 in 10.0 mi Calm Calm - N/A   Clear
8:53 AM 81.0 °F 85.8 °F 73.0 °F 77% 29.99 in 10.0 mi Variable 4.6 mph - N/A   Partly Cloudy
9:53 AM 82.9 °F 87.5 °F 71.1 °F 67% 29.99 in 10.0 mi SSW 3.5 mph - N/A   Partly Cloudy
10:53 AM 86.0 °F 90.7 °F 70.0 °F 59% 30.00 in 10.0 mi WSW 10.4 mph - N/A   Clear
11:53 AM 87.1 °F 92.8 °F 71.1 °F 59% 29.99 in 10.0 mi SSE 6.9 mph - N/A   Scattered Clouds
12:53 PM 87.1 °F 94.5 °F 73.0 °F 63% 29.98 in 10.0 mi SE 13.8 mph - N/A   Scattered Clouds
1:53 PM 88.0 °F 95.6 °F 73.0 °F 61% 29.96 in 10.0 mi SSE 12.7 mph - N/A   Scattered Clouds
2:53 PM 88.0 °F 96.5 °F 73.9 °F 63% 29.94 in 10.0 mi SSE 11.5 mph 18.4 mph N/A   Scattered Clouds
3:53 PM 87.1 °F 95.4 °F 73.9 °F 65% 29.91 in 10.0 mi SSE 15.0 mph - N/A   Scattered Clouds
4:53 PM 87.1 °F 95.4 °F 73.9 °F 65% 29.90 in 10.0 mi SSE 16.1 mph 20.7 mph N/A   Clear
5:53 PM 84.9 °F 92.1 °F 73.9 °F 69% 29.91 in 10.0 mi South 11.5 mph - N/A   Scattered Clouds
6:07 PM 84.2 °F 90.9 °F 73.4 °F 70% 29.91 in 10.0 mi South 12.7 mph - N/A Thunderstorm Thunderstorm
6:24 PM 78.8 °F - 73.4 °F 83% 29.92 in 5.0 mi SW 10.4 mph - 0.04 in Rain , Thunderstorm Light Thunderstorms and Rain
6:46 PM 80.6 °F 86.2 °F 75.2 °F 84% 29.91 in 10.0 mi SSE 6.9 mph - 0.18 in Rain Light Rain
6:53 PM 80.1 °F 85.1 °F 75.0 °F 85% 29.92 in 10.0 mi SE 5.8 mph - 0.19 in Rain Light Rain
7:53 PM 82.0 °F 90.2 °F 77.0 °F 85% 29.92 in 10.0 mi South 5.8 mph - N/A   Clear
8:53 PM 81.0 °F 86.7 °F 75.0 °F 82% 29.95 in 10.0 mi SW 6.9 mph - N/A Thunderstorm Partly Cloudy
9:22 PM 80.6 °F 85.4 °F 73.4 °F 79% 29.95 in 10.0 mi WNW 4.6 mph - N/A   Partly Cloudy
9:53 PM 80.1 °F 83.6 °F 71.1 °F 74% 29.96 in 10.0 mi Calm Calm - N/A   Partly Cloudy
10:53 PM 80.1 °F 83.8 °F 72.0 °F 76% 29.96 in 10.0 mi Calm Calm - N/A   Mostly Cloudy
11:53 PM 81.0 °F 86.2 °F 73.9 °F 79% 29.96 in 10.0 mi SSW 5.8 mph - N/A   Clear